Regional Weather Roundup
Issued by NWS San Diego, CA

Home | Current Version | Previous Version | Text Only | Print | Product List | Glossary On
Versions: 1 2 3 4 5 6 7 8 9 10 11 12 13 14 15 16 17 18 19 20 21 22 23 24 25 26 27 28 29 30 31 32 33 34 35 36 37 38 39 40 41 42 43 44 45 46 47 48 49 50
665
ASUS46 KSGX 060011
RWRSGX

SAN DIEGO HOURLY WEATHER ROUNDUP
NATIONAL WEATHER SERVICE SAN DIEGO CA
400 PM PST FRI FEB 05 2016

NOTE: "FAIR" INDICATES FEW OR NO CLOUDS BELOW 12,000 FEET WITH NO
SIGNIFICANT WEATHER AND/OR OBSTRUCTIONS TO VISIBILITY.

CAZ042-043-060-061-PZZ750-775-060100-

GREATER SAN DIEGO AREA

CITY           SKY/WX    TMP DP  RH WIND       PRES   REMARKS
LINDBERGH FLD  SUNNY     72  36  26 NW7       30.22S
POINT LOMA       N/A     66  33  28 NW18        N/A
NATIONAL CITY    N/A     71  37  28 CALM      30.21F
CHULA VISTA      N/A     72  40  31 W1        30.14F
IMPERIAL BEACH SUNNY     69  45  41 W6        30.22F
BROWN FIELD    SUNNY     69  33  26 W5        30.22S
MIRAMAR MCAS   SUNNY     78  22  12 NE12      30.21S
MONTGOMERY FLD SUNNY     75  29  18 CALM      30.21S

$$

NORTH SAN DIEGO COUNTY

CITY           SKY/WX    TMP DP  RH WIND       PRES   REMARKS
CAMP PENDLETON SUNNY     79  20  11 NE10      30.20S
OCEANSIDE AP   SUNNY     69  47  45 SW9       30.20S
OCEANSIDE HBR    N/A     64  53  67 SW3       30.23S
VISTA            N/A     79  31  17 CALM      30.21S
CARLSBAD       SUNNY     71  35  26 MISG      30.21S
FALLBROOK        N/A     76  26  16 SE1       30.21S
ESCONDIDO        N/A     73  23  15 E8        30.24S
SAN MARCOS       N/A     76  25  15 CALM      30.21S
POWAY            N/A     74  25  16 N7        30.24F

$$

EAST SAN DIEGO COUNTY

CITY           SKY/WX    TMP DP  RH WIND       PRES   REMARKS
RAMONA         SUNNY     67  23  19 NE17G26   30.24F
SANTEE LAKES     N/A     75  27  17 N1        30.20F
LA MESA          N/A     74  24  15 CALM      30.16S
JAMUL            N/A     71  28  20 NE3       30.24S
DESCANSO N       N/A     57  21  25 NE12      30.16F
MT. LAGUNA OBS   N/A     40  14  35 E12       29.87R WCI  32
CAMPO            N/A     58  18  21 NE29G38   30.23F

$$

ORANGE COUNTY AND THE LOS ANGELES BASIN

CITY           SKY/WX    TMP DP  RH WIND       PRES   REMARKS
JOHN WAYNE AP  SUNNY     77  22  13 NE10      30.22S
LAGUNA BEACH     N/A     73  50  44 SE3       30.17S
LAKE FOREST FR   N/A     74  21  13 NE8       30.12S
HUNTINGTON BCH   N/A     78  27  15 NE5       30.24S
LOS ALAMITOS   SUNNY     76  24  14 E12       30.22F
FULLERTON      SUNNY     78  18  10 E14       30.22F
LONG BEACH     SUNNY     77  24  14 NE7       30.23S
L.A. AP        MOSUNNY   71  34  25 SW6       30.23F
L.A. DOWNTOWN  SUNNY     76  24  14 VRB3      30.22F

$$

THE INLAND EMPIRE

CITY           SKY/WX    TMP DP  RH WIND       PRES   REMARKS
CORONA         SUNNY     73  23  15 E16G25    30.26S
CHINO          MOSUNNY   74  19  12 E9        30.25S
ONTARIO        SUNNY     73  18  12 NE12G17   30.24F
SAN BERNARDINO SUNNY    N/A N/A N/A CALM      30.26F
RIVERSIDE AP   SUNNY     73  19  13 N13G23    30.26F
MORENO VALLEY    N/A     69  31  23 SE7       28.37S
MARCH ARB      SUNNY     68  19  15 E17       30.27F
HORSETHIEF CYN   N/A     69  17  13 E5        30.31S
PERRIS           N/A     67  24  19 S7        30.26F
HEMET EAST       N/A     70  15  12 CALM      30.18S
FRENCH VALLEY  FAIR      72  19  14 E10G20    30.25S
TEMECULA         N/A     71  26  18 NE9       30.15F

$$

SAN BERNARDINO AND RIVERSIDE COUNTY MOUNTAINS

CITY           SKY/WX    TMP DP  RH WIND       PRES   REMARKS
BIG BEAR AP    SUNNY     39  10  30 NE9       30.40F WCI  33
ANGELUS OAKS     N/A     49  22  34 CALM      30.29F
PINE COVE        N/A     50  19  29 NW3       30.33S

$$

SOUTHERN DESERT INCLUDING THE COACHELLA VALLEY

CITY           SKY/WX    TMP DP  RH WIND       PRES   REMARKS
PALM SPRINGS   SUNNY     74  19  12 N9        30.33S
THOUSAND PALMS   N/A     78  21  12 N2        30.29F
PALM DESERT      N/A     77  23  13 CALM      30.16F
THERMAL        SUNNY     74  18  12 W7        30.29S
BLYTHE         SUNNY     70  21  15 N13       30.31F
IMPERIAL AP    SUNNY     72  25  17 NW6       30.30S
EL CENTRO NAS  SUNNY     72  22  15 N3        30.32S
YUMA AZ        SUNNY     71  19  14 NE18      30.28
MEXICALI       SUNNY     70  21  16 NW9       30.30

$$

UPPER DESERT

CITY           SKY/WX    TMP DP  RH WIND       PRES   REMARKS
VICTORVILLE AP SUNNY     57  12  17 N13       30.39S
HESPERIA         N/A     59  21  23 CALM      30.57S
APPLE VALLEY     N/A     59  12  15 NE10G18   30.32S
PALMDALE       SUNNY     61  16  17 E14       30.38F
LANCASTER      SUNNY     62  19  19 E10       30.39S
EDWARDS AFB    MOSUNNY   62  19  18 E9        30.36F
DAGGETT        SUNNY     61  18  18 E8        30.39F
29 PALMS N     SUNNY     61  18  18 N10       30.44F
NEEDLES        SUNNY     65  22  19 N23G29    30.35F

$$

REGIONAL REPORTS

CITY           SKY/WX    TMP DP  RH WIND       PRES   REMARKS
SANTA BARBARA  SUNNY     69  32  25 W12       30.27F
SANDBERG       SUNNY     52  20  28 E22G28    30.39F
LAS VEGAS NV   MOSUNNY   59  21  23 NE8       30.39F
PHOENIX AZ     MOSUNNY   68  15  13 E7        30.26F
TIJUANA        SUNNY     73  18  12 NE15      30.24S
ENSENADA NW      N/A     73  32  22 E2        30.14S

$$

OFFSHORE ISLANDS

CITY           SKY/WX    TMP DP  RH WIND       PRES   REMARKS
CATALINA ARPT  SUNNY     64  21  19 N9        30.28F
SAN CLEMENTE I MOSUNNY   66  40  38 NW12      30.26S
SAN NICOLAS IS MOSUNNY   65  27  23 NW12      30.27F

$$

MARINE AND OFFSHORE BUOY REPORTS

STATION/POSITION SKY/WX   TEMP    WIND        PRES    SWELL
                          AIR SEA DIR/SP/G            HT/PER/DIR
                          (F)     (DEG/KT/KT) (MB)    (FT/S/D)
TANNER BANKS               60 60  350/ 10/ 12 1024.5S  10/300/15
S CLEMENTE BASIN           61 61  320/  8/  8 1023.4F   7/300/16
SAN NICOLAS IS.               59                N/A    10/290/17
SO. S. ROSA ISLA           58 58              1024.6F
W. S. BARBARA CH           57 58  310/ 10/ 14 1025.5F  10/300/16
M. S. BARBARA CH           60 59  290/  8/ 10 1025.7F
S. MONICA BASIN            61 60  320/ 10/ 12 1024.5F   3/270/15
S PEDRO CHANNEL               60                N/A     3/270/15
DANA POINT                    60                N/A     3/270/17
CMP PENDLETON NS              59                N/A     2/240/15
OCEANSIDE OFFSHR              60                N/A     3/260/17
TORREY PINES OTR              61                N/A     5/270/14
POINT LOMA SOUTH              61                N/A     7/270/17

$$





USA.gov is the U.S. government's official web portal to all federal, state and local government web resources and services.